Flag for U.S.A. Weather past 2 weeks in Post Falls, Idaho, U.S.A.

Now
95 °F

Sunny.


Feels Like: 91 °F
Forecast: 60 / 99 °F
Wind: 13 mph from Southwest

Location: Coeur d'Alene Weather Reporting System

Current Time: Aug 1, 2015 at 2:00:51 PM

Latest Report: Aug 1, 2015 at 1:35 PM


Visibility: 6 mi

Pressure: 29.92 "Hg (27.80 "Hg at 664m altitude)

Humidity: 14%

Dew point: 39 °F

Location of Post FallsLocation

Historic Weather in Post Falls — Graph

°F

Post Falls temperature yesterday

Maximum temperature yesterday: 99 °F (at 2:15 PM)
Minimum temperature yesterday: 54 °F (at 3:55 AM)
Average temperature yesterday: 78 °F

Past Weeks' High & Low Weather Summary

 TemperatureHumidityPressure
High99 °F (Jul 31, 2:15 PM)88% (Jul 25, 8:35 PM)30.23 "Hg (Jul 25, 8:35 PM)
Low48 °F (Jul 27, 5:35 AM)10% (Jul 18, 10:15 AM)29.72 "Hg (Jul 22, 12:15 AM)
Average70 °F39%29.99 "Hg
* Reported Jul 17 12:15 PM — Aug 1 12:35 PM, Post Falls, Weather by CustomWeather, © 2015

Note: Actual official high and low records may vary slightly from our data, if they occured in-between our weather recording intervals... More about our weather records

Advertising

Post Falls weather history for previous 24 hours

 ConditionsComfort  
Time TempWeatherWind HumidityBarometerVisibility
12:35 PM
Sat, Aug 1
91 °FSunny.No wind16%29.94 "Hg8 mi
12:15 PM90 °FSunny.6 mph17%29.95 "Hg5 mi
11:55 AM90 °FSunny.6 mph17%29.96 "Hg9 mi
11:35 AM88 °FSunny.5 mph17%29.96 "Hg10 mi
11:15 AM88 °FSunny.7 mph18%29.97 "Hg10 mi
10:55 AM88 °FSunny.5 mph21%29.98 "Hg10 mi
10:15 AM84 °FSunny.7 mph23%29.98 "Hg10 mi
9:55 AM82 °FSunny.8 mph25%29.98 "Hg10 mi
9:35 AM81 °FSunny.9 mph26%29.98 "Hg10 mi
9:15 AM79 °FSunny.7 mph28%29.98 "Hg10 mi
8:55 AM77 °FSunny.6 mph30%29.98 "Hg10 mi
8:15 AM73 °FSunny.3 mph33%29.98 "Hg10 mi
7:55 AM72 °FSunny.6 mph33%29.98 "Hg10 mi
7:15 AM66 °FSunny.3 mph49%29.98 "Hg10 mi
6:55 AM66 °FSunny.5 mph46%29.98 "Hg10 mi
6:35 AM63 °FSunny.3 mph52%29.97 "Hg10 mi
6:15 AM61 °FClear.5 mph52%29.97 "Hg10 mi
5:55 AM57 °FClear.5 mph59%29.96 "Hg10 mi
5:35 AM55 °FClear.No wind59%29.96 "Hg10 mi
5:15 AM57 °FClear.No wind55%29.96 "Hg10 mi
4:55 AM57 °FClear.No wind59%29.96 "Hg10 mi
4:35 AM54 °FClear.No wind58%29.96 "Hg10 mi
4:15 AM54 °FClear.5 mph58%29.96 "Hg10 mi
3:55 AM55 °FClear.No wind55%29.96 "Hg10 mi
3:35 AM55 °FClear.No wind55%29.96 "Hg10 mi
3:15 AM57 °FClear.No wind51%29.96 "Hg10 mi
2:55 AM57 °FClear.No wind51%29.96 "Hg10 mi
2:35 AM55 °FClear.No wind51%29.96 "Hg10 mi
2:15 AM55 °FClear.No wind55%29.97 "Hg10 mi
1:55 AM57 °FClear.No wind51%29.96 "Hg10 mi
1:35 AM55 °FClear.No wind47%29.97 "Hg10 mi
1:15 AM63 °FClear.No wind42%29.97 "Hg10 mi
12:55 AM64 °FClear.No wind40%29.97 "Hg10 mi
12:35 AM63 °FClear.No wind42%29.97 "Hg10 mi
12:15 AM70 °FClear.No wind40%29.97 "Hg10 mi
11:55 PM
Fri, Jul 31
72 °FClear.9 mph29%29.97 "Hg10 mi
11:35 PM73 °FClear.9 mph27%29.97 "Hg10 mi
11:15 PM73 °FClear.9 mph29%29.97 "Hg10 mi
10:55 PM72 °FClear.7 mph31%29.97 "Hg10 mi
10:35 PM72 °FClear.8 mph33%29.97 "Hg10 mi
10:15 PM73 °FClear.5 mph33%29.97 "Hg10 mi
9:55 PM73 °FClear.6 mph33%29.97 "Hg10 mi
9:35 PM75 °FClear.7 mph22%29.96 "Hg10 mi
8:55 PM79 °FSunny.No wind17%29.95 "Hg10 mi
8:35 PM79 °FSunny.6 mph17%29.95 "Hg10 mi
7:55 PM82 °FSunny.5 mph12%29.94 "Hg10 mi
7:35 PM90 °FSunny.6 mph11%29.94 "Hg10 mi
7:15 PM93 °FSunny.7 mph11%29.94 "Hg10 mi
6:55 PM97 °FSunny.7 mph10%29.94 "Hg10 mi
6:35 PM97 °FSunny.8 mph10%29.94 "Hg10 mi
6:15 PM97 °FSunny.9 mph11%29.95 "Hg10 mi
5:55 PM97 °FSunny.12 mph11%29.96 "Hg10 mi
5:35 PM99 °FSunny.15 mph10%29.97 "Hg10 mi
5:15 PM99 °FSunny.8 mph10%29.97 "Hg10 mi
4:55 PM99 °FSunny.12 mph10%29.98 "Hg10 mi
4:35 PM99 °FSunny.8 mph11%29.98 "Hg10 mi
4:15 PM99 °FSunny.14 mph11%29.99 "Hg10 mi
3:55 PM99 °FSunny.9 mph12%30.00 "Hg10 mi
3:35 PM99 °FSunny.12 mph12%30.01 "Hg10 mi
2:35 PM97 °FSunny.No wind12%30.03 "Hg10 mi
2:15 PM99 °FSunny.9 mph12%30.04 "Hg10 mi
Weather by CustomWeather, © 2015

See weather overviewHow to use our weather pages